| time (UTC) | temp F | wind direction | speed knots | gust knots | rain 1hr in | rain 24hr in | rain mn in | humidity % | barometer mb |
| 20260506235434 | 53 | 77 | 1.7 | 2.6 | 0.00 | 0.00 | 0.24 | 48 | 1013.1 |
| 20260506234433 | 53 | 80 | 0.9 | 2.6 | 0.00 | 0.00 | 0.24 | 49 | 1013.0 |
| 20260506233433 | 53 | 39 | 3.5 | 7.0 | 0.00 | 0.00 | 0.24 | 46 | 1012.6 |
| 20260506232433 | 53 | 42 | 0.9 | 3.5 | 0.00 | 0.00 | 0.24 | 47 | 1012.8 |
| 20260506231433 | 54 | 60 | 3.5 | 4.3 | 0.00 | 0.00 | 0.24 | 46 | 1013.0 |
| 20260506230433 | 54 | 28 | 2.6 | 2.6 | 0.00 | 0.00 | 0.24 | 49 | 1013.0 |
| 20260506225433 | 54 | 36 | 2.6 | 5.2 | 0.00 | 0.00 | 0.24 | 47 | 1012.8 |
| 20260506224433 | 54 | 57 | 0.9 | 4.3 | 0.00 | 0.00 | 0.24 | 49 | 1013.1 |
| 20260506223433 | 54 | 214 | 1.7 | 2.6 | 0.00 | 0.00 | 0.24 | 49 | 1013.1 |
| 20260506222433 | 54 | 69 | 0.9 | 3.5 | 0.00 | 0.00 | 0.24 | 48 | 1013.0 |
| 20260506221433 | 55 | 14 | 1.7 | 6.1 | 0.00 | 0.00 | 0.24 | 47 | 1013.1 |
| 20260506220433 | 55 | 55 | 1.7 | 3.5 | 0.00 | 0.00 | 0.24 | 49 | 1012.9 |
| 20260506215433 | 55 | 0 | 3.5 | 5.2 | 0.00 | 0.00 | 0.24 | 47 | 1012.8 |
| 20260506214433 | 55 | 43 | 4.3 | 4.3 | 0.00 | 0.00 | 0.24 | 45 | 1012.7 |
| 20260506213433 | 54 | 75 | 0.9 | 3.5 | 0.00 | 0.00 | 0.24 | 48 | 1012.3 |
| 20260506212433 | 55 | 50 | 1.7 | 7.0 | 0.00 | 0.00 | 0.24 | 47 | 1012.4 |
| 20260506211433 | 55 | 10 | 1.7 | 3.5 | 0.00 | 0.00 | 0.24 | 45 | 1012.4 |
| 20260506210433 | 55 | 33 | 4.3 | 4.3 | 0.00 | 0.00 | 0.24 | 46 | 1012.4 |
| 20260506205433 | 55 | 15 | 2.6 | 5.2 | 0.00 | 0.00 | 0.24 | 46 | 1012.3 |
| 20260506204433 | 55 | 6 | 2.6 | 5.2 | 0.00 | 0.00 | 0.24 | 46 | 1012.3 |
| 20260506203433 | 55 | 96 | 1.7 | 7.8 | 0.00 | 0.00 | 0.24 | 46 | 1012.0 |
| 20260506202433 | 55 | 83 | 2.6 | 4.3 | 0.00 | 0.00 | 0.24 | 47 | 1012.0 |
| 20260506201433 | 54 | 76 | 2.6 | 5.2 | 0.00 | 0.00 | 0.24 | 48 | 1012.3 |
| 20260506200433 | 55 | 50 | 3.5 | 5.2 | 0.00 | 0.00 | 0.24 | 48 | 1011.9 |
| 20260506195434 | 55 | 38 | 3.5 | 4.3 | 0.00 | 0.00 | 0.24 | 47 | 1012.2 |
| 20260506194433 | 55 | 12 | 2.6 | 7.0 | 0.00 | 0.00 | 0.24 | 48 | 1012.1 |
| 20260506193434 | 55 | 40 | 2.6 | 5.2 | 0.00 | 0.00 | 0.24 | 47 | 1012.2 |
| 20260506192433 | 56 | 26 | 1.7 | 3.5 | 0.00 | 0.00 | 0.24 | 46 | 1012.1 |